This is the latest recevied weather packets stored in our database for station/object KC5TIL-3. If no packets are shown the sender has not sent any weather packets the latest 10 day(s).
| Time | Temp. | Humidity | Pressure | Rain* | Wind** | Luminosity | Snow |
|---|---|---|---|---|---|---|---|
| 1777590789 | 16.11° C | 53% | 1010.8 hPa | 0 mm | 3.58 m/s, 121° | - | - |
| 1777590488 | 16.67° C | 53% | 1010.8 hPa | 0 mm | 3.13 m/s, 111° | - | - |
| 1777590190 | 16.67° C | 53% | 1010.8 hPa | 0 mm | 2.68 m/s, 51° | - | - |
| 1777589891 | 16.67° C | 54% | 1010.8 hPa | 0 mm | 3.13 m/s, 52° | - | - |
| 1777589590 | 16.67° C | 54% | 1010.8 hPa | 0 mm | 2.24 m/s, 351° | - | - |
| 1777589287 | 16.67° C | 54% | 1010.8 hPa | 0 mm | 3.13 m/s, 126° | - | - |
| 1777587492 | 16.67° C | 59% | 1010.8 hPa | 0 mm | 3.13 m/s, 329° | - | - |
| 1777587194 | 16.11° C | 60% | 1010.8 hPa | 0 mm | 2.68 m/s, 182° | - | - |
| 1777586888 | 16.67° C | 62% | 1010.8 hPa | 0 mm | 2.68 m/s, 106° | - | - |
| 1777586589 | 16.67° C | 63% | 1010.8 hPa | 0 mm | 4.02 m/s, 182° | - | - |
| 1777585990 | 16.67° C | 66% | 1010.8 hPa | 0 mm | 1.79 m/s, 178° | - | - |
| 1777585692 | 16.67° C | 66% | 1010.8 hPa | 0 mm | 3.13 m/s, 83° | - | - |
| 1777585092 | 16.67° C | 70% | 1010.8 hPa | 0 mm | 1.79 m/s, 288° | - | - |
| 1777584794 | 16.67° C | 70% | 1011.8 hPa | 0 mm | 2.68 m/s, 223° | - | - |
| 1777584195 | 16.67° C | 74% | 1011.8 hPa | 0 mm | 2.68 m/s, 4° | - | - |
| 1777583897 | 16.67° C | 75% | 1011.8 hPa | 0 mm | 2.68 m/s, 58° | - | - |
| 1777583599 | 17.22° C | 75% | 1011.8 hPa | 0 mm | 1.79 m/s, 103° | - | - |
| 1777583297 | 17.22° C | 75% | 1011.8 hPa | 0 mm | 2.24 m/s, 83° | - | - |
| 1777582999 | 17.22° C | 75% | 1011.8 hPa | 0 mm | 1.79 m/s, 32° | - | - |
| 1777582701 | 17.22° C | 74% | 1011.8 hPa | 0 mm | 2.24 m/s, 65° | - | - |
| 1777582395 | 17.22° C | 73% | 1011.8 hPa | 0 mm | 1.79 m/s, 30° | - | - |
| 1777582092 | 17.22° C | 72% | 1011.8 hPa | 0 mm | 1.79 m/s, 76° | - | - |
| 1777581493 | 16.67° C | 70% | 1011.8 hPa | 0 mm | 2.68 m/s, 51° | - | - |
| 1777581194 | 16.67° C | 70% | 1011.8 hPa | 0 mm | 1.79 m/s, 317° | - | - |
| 1777580595 | 17.22° C | 69% | 1011.8 hPa | 0 mm | 2.68 m/s, 139° | - | - |
* Rain latest hour (hover to see other rain measurements)
** Current wind speed in m/s (hover to see current wind gust speed)